FW9069 Weather Reports


time (UTC)temp
F
wind
direction
speed
knots
gust
knots
rain 1hr
in
rain 24hr
in
rain mn
in
humidity
%
barometer
mb
20260504223342 71 207 0.9 7.8 0.00 0.00 0.00 71 1012.6
20260504221832 70 174 3.5 7.8 0.00 0.00 0.00 72 1012.7
20260504220338 71 180 1.7 8.7 0.00 0.00 0.00 70 1012.9
20260504214824 71 118 2.6 7.8 0.00 0.00 0.00 69 1013.1
20260504213336 71 181 3.5 7.8 0.00 0.00 0.00 66 1013.1
20260504211844 70 170 1.7 5.2 0.00 0.00 0.00 68 1013.3
20260504210331 70 169 3.5 7.0 0.00 0.00 0.00 69 1013.4
20260504204839 69 183 4.3 8.7 0.00 0.00 0.00 70 1013.7
20260504203327 68 129 3.5 7.0 0.00 0.00 0.00 74 1013.9
20260504201834 67 157 1.7 7.8 0.00 0.00 0.00 73 1013.8
20260504200326 65 138 1.7 7.0 0.00 0.00 0.00 75 1013.9
20260504194856 65 69 3.5 7.8 0.00 0.00 0.00 76 1013.9
20260504193326 64 174 1.7 8.7 0.00 0.00 0.00 75 1014.0
20260504191829 63 136 1.7 7.8 0.00 0.00 0.00 79 1014.1
20260504190341 62 127 2.6 8.7 0.00 0.00 0.00 78 1014.2
20260504184830 61 127 1.7 5.2 0.00 0.00 0.00 81 1014.4
20260504183321 60 148 1.7 6.1 0.00 0.00 0.00 82 1014.3
20260504181832 60 135 2.6 7.0 0.00 0.00 0.00 82 1014.3
20260504180323 59 172 2.6 6.1 0.00 0.00 0.00 83 1014.2
20260504174830 58 173 1.7 6.1 0.00 0.00 0.00 86 1014.3
20260504173338 57 104 1.7 5.2 0.00 0.00 0.00 86 1014.1
20260504171843 56 175 4.3 8.7 0.00 0.00 0.00 87 1014.3
20260504170333 56 152 3.5 8.7 0.00 0.00 0.00 87 1014.2
20260504160331 54 155 3.5 7.8 0.00 0.00 0.00 91 1014.0
20260504150325 53 147 2.6 7.0 0.00 0.00 0.00 93 1013.9
20260504140320 51 119 0.9 6.1 0.00 0.00 0.00 95 1013.3
20260504130327 51 172 1.7 6.1 0.00 0.00 0.00 93 1012.3
20260504110326 52 186 5.2 10.4 0.00 0.00 0.00 92 1011.3
20260504100323 53 180 5.2 7.8 0.00 0.00 0.00 90 1011.1
20260504081821 58 188 3.5 7.0 0.00 0.00 0.00 77 1010.2
20260504080326 61 204 5.2 8.7 0.00 0.00 0.00 72 1010.0
20260504070332 67 240 7.8 14.8 0.00 0.00 0.00 60 1009.5
20260504050325 74 239 6.1 16.5 0.00 0.00 0.00 45 1008.7
20260504044814 75 233 9.6 16.5 0.00 0.00 0.00 43 1008.4
20260504043332 76 245 6.1 13.9 0.00 0.00 0.00 43 1008.1
20260504041831 76 243 8.7 13.9 0.00 0.00 0.00 42 1007.9
20260504040337 77 217 8.7 14.8 0.00 0.00 0.00 42 1007.8
20260504034823 77 244 8.7 13.0 0.00 0.00 0.00 42 1007.7
20260504033331 78 235 8.7 13.9 0.00 0.00 0.00 42 1007.6
20260504031840 78 239 7.8 13.0 0.00 0.00 0.00 43 1007.6
20260504030325 79 229 8.7 13.0 0.00 0.00 0.00 43 1007.6
20260504024830 82 237 7.0 9.6 0.00 0.00 0.00 43 1007.7
20260504023338 85 239 6.1 10.4 0.00 0.00 0.00 40 1007.7
20260504021829 87 295 0.0 1.7 0.00 0.00 0.00 37 1007.6
20260504020320 87 319 0.0 2.6 0.00 0.00 0.00 36 1007.7
20260504014827 88 315 0.9 3.5 0.00 0.00 0.00 36 1007.8
20260504013356 88 331 1.7 6.1 0.00 0.00 0.00 35 1007.8
20260504011825 88 323 0.9 6.1 0.00 0.00 0.00 36 1007.9
20260504010329 89 319 1.7 7.0 0.00 0.00 0.00 36 1008.0
20260504004858 90 314 3.5 6.1 0.00 0.00 0.00 33 1008.0
20260504003324 90 326 4.3 7.8 0.00 0.00 0.00 35 1008.0
20260504001833 90 331 1.7 6.1 0.00 0.00 0.00 34 1008.2
20260504000328 89 294 1.7 7.0 0.00 0.00 0.00 36 1008.3
20260503234832 89 263 0.9 6.1 0.00 0.00 0.00 34 1008.3
20260503233321 89 342 1.7 7.0 0.00 0.00 0.00 36 1008.5
20260503231855 90 317 5.2 9.6 0.00 0.00 0.00 33 1008.7
20260503230345 90 325 1.7 6.1 0.00 0.00 0.00 38 1008.8
20260503224826 89 354 0.9 6.1 0.00 0.00 0.00 39 1009.2